Location: Los Gatos B&B
(42.6926°N, 77.0646°W)
Time: 03:55:29
(UTC-04:00)

Amateur Radio Satellites - All Passes

Search period start: 28 May 2016 03:25
Search period end: 29 May 2016 03:25
Location: Los Gatos B&B, 42.6926°N, 77.0646°W

Satellite Date Start Highest point End Downlink Frequencies (MHz)
Time Altitude Azimuth
SO-50 28 May 03:32:03 03:33:14 11° 331° (NNW) 03:34:26 436.795
Oscar 19 28 May 03:49:07 03:53:22 27° 295° (WNW) 03:57:36 437.125/150
KKS-1 28 May 04:00:19 04:04:48 87° 78° (ENE) 04:09:18 437.445
CUBESAT XI-V 28 May 04:11:43 04:12:40 11° 59° (ENE) 04:13:37 437.345
Gurwin Techsat 1B 28 May 04:14:15 04:19:06 37° 292° (WNW) 04:23:56 435.225
MOZHAYETS 4 28 May 04:18:18 04:22:51 86° 254° (WSW) 04:27:27
YUBILEINY 28 May 04:21:10 04:29:53 72° 266° (W) 04:38:36 435.215
ITAMSAT 1 28 May 04:30:42 04:35:52 63° 288° (WNW) 04:41:01 435.822/435.867
STARS 28 May 04:35:04 04:39:29 78° 256° (WSW) 04:43:55 437.465
AO-7 28 May 04:36:11 04:44:19 52° 102° (ESE) 04:52:24 29.400- 29.500
ISS 28 May 04:41:24 04:44:27 37° 221° (SW) 04:47:29 145.825
RS-15 28 May 04:57:17 05:07:06 30° 258° (WSW) 05:16:53 29.354- 29.394
Cosmos 2504 28 May 05:07:02 05:15:29 72° 80° (E) 05:24:19 435.465 / 435.565
Cosmos 2491 28 May 05:16:29 05:25:15 67° 281° (W) 05:34:05 435.465 / 435.565
HORYU 2 28 May 05:17:40 05:21:26 27° 96° (E) 05:25:12 437.375
AO-85 28 May 05:33:05 05:37:25 25° 111° (ESE) 05:41:42 145.980
CUBESAT XI-V 28 May 05:44:35 05:49:16 87° 76° (ENE) 05:54:00 437.345
CUTE-I 28 May 06:10:37 06:13:09 13° 89° (E) 06:15:42 437.470
YUBILEINY 28 May 06:21:15 06:25:00 13° 287° (WNW) 06:28:45 435.215
AO-7 28 May 06:29:18 06:36:51 39° 301° (WNW) 06:44:23 29.400- 29.500
HORYU 2 28 May 06:54:07 06:57:57 29° 292° (WNW) 07:01:47 437.375
NOAA 15 28 May 06:55:54 07:01:04 51° 100° (E) 07:06:11 137.62
Cosmos 2504 28 May 07:01:37 07:08:07 25° 278° (W) 07:14:50 435.465 / 435.565
Cubesat XI-IV 28 May 07:02:29 07:07:32 40° 98° (E) 07:12:34 437.490
NOAA 18 28 May 07:04:43 07:10:03 50° 101° (E) 07:15:21 137.9125
AO-85 28 May 07:12:17 07:17:38 54° 308° (NW) 07:22:51 145.980
STRAND 1 28 May 07:14:27 07:19:28 62° 72° (ENE) 07:24:31 437.568
Cosmos 2491 28 May 07:19:46 07:24:03 14° 304° (NW) 07:28:22 435.465 / 435.565
BRITE-PL 28 May 07:22:09 07:27:19 76° 101° (ESE) 07:32:01 437.365/2234.400
GOMX 1 28 May 07:44:20 07:48:58 57° 100° (E) 07:53:17 467.674
LilacSat-2 28 May 07:45:31 07:49:16 64° 284° (WNW) 07:53:01 437.200
CUTE-I 28 May 07:48:26 07:53:49 79° 286° (WNW) 07:59:10 437.470
Cosmos 2499 28 May 07:49:50 07:53:14 13° 55° (NE) 07:56:41 435.465 / 435.565
AIST 1 28 May 08:02:14 08:05:58 27° 74° (ENE) 08:09:40
GONETS M04 28 May 08:15:23 08:22:48 30° 67° (ENE) 08:30:09
DOVE 4 28 May 08:30:25 08:34:51 82° 103° (ESE) 08:39:02 437.250
NOAA 15 28 May 08:36:26 08:40:29 23° 297° (WNW) 08:44:31 137.62
SO-50 28 May 08:37:27 08:41:37 29° 45° (NE) 08:45:39 436.795
Cubesat XI-IV 28 May 08:42:55 08:47:26 28° 295° (WNW) 08:51:55 437.490
PRISM 28 May 08:44:47 08:48:56 85° 254° (WSW) 08:53:08 437.425
CANX-2 28 May 08:45:07 08:49:08 37° 97° (E) 08:53:07 2200.000
NOAA 18 28 May 08:46:03 08:50:23 24° 297° (WNW) 08:54:40 137.9125
SEEDS 28 May 08:46:59 08:50:31 25° 95° (E) 08:54:02 437.485
O/OREOS (USA 219) 28 May 08:55:46 08:58:46 17° 100° (E) 09:01:45 437.305
STRAND 1 28 May 08:55:55 08:59:03 16° 269° (W) 09:02:14 437.568
AO-85 28 May 08:56:40 08:59:15 13° 328° (NNW) 09:01:49 145.980
CINEMA 3 28 May 08:56:47 09:00:48 44° 99° (E) 09:04:46 145.822/145.860
BRITE-PL 28 May 09:02:21 09:05:02 14° 301° (WNW) 09:07:36 437.365/2234.400
AUBIESAT-1 28 May 09:02:55 09:05:59 34° 104° (ESE) 09:09:02 437.475
M-CUBED/EXP-1 PRIME 28 May 09:10:02 09:13:16 55° 106° (ESE) 09:16:29 437.505
HO-68 28 May 09:10:42 09:17:49 61° 102° (ESE) 09:24:53 435.675
CUTE 1.7 + AOD 2 28 May 09:12:06 09:16:21 66° 101° (E) 09:20:37 437.475
PCSat 28 May 09:19:32 09:24:03 27° 109° (ESE) 09:28:36 145.827
Oscar 11 28 May 09:19:59 09:22:12 14° 90° (E) 09:24:24 145.826/435.025
GOMX 1 28 May 09:23:45 09:26:30 16° 299° (WNW) 09:29:09 467.674
CUTE-I 28 May 09:31:05 09:32:59 12° 304° (NW) 09:34:53 437.470
COMPASS 1 28 May 09:31:32 09:35:42 55° 100° (E) 09:39:50 437.405
AAUSAT CUBESAT 2 28 May 09:33:30 09:37:34 46° 99° (E) 09:41:36 437.432
ZACube-1 28 May 09:34:48 09:37:36 17° 93° (E) 09:40:25 437.345
Cosmos 2499 28 May 09:39:48 09:48:19 60° 78° (ENE) 09:57:03 435.465 / 435.565
AIST 1 28 May 09:39:53 09:43:28 25° 271° (W) 09:47:00
CUBEBUG 2 28 May 09:42:06 09:46:06 44° 99° (E) 09:50:08 437.445
UNISAT 6 28 May 09:56:18 10:00:03 29° 69° (ENE) 10:03:47 437.425
DELFI C3 28 May 09:59:20 10:01:56 16° 92° (E) 10:04:31 145.870
TIGRISAT 28 May 10:03:29 10:07:21 32° 70° (ENE) 10:11:12 435.000
UWE-3 28 May 10:09:14 10:13:23 62° 101° (E) 10:17:35 435.000/436.395/437.385
DOVE 4 28 May 10:11:19 10:11:48 10° 301° (WNW) 10:12:16 437.250
FUNcube-1 28 May 10:11:37 10:15:35 40° 98° (E) 10:19:36 145.935
GONETS M04 28 May 10:11:40 10:20:12 62° 268° (W) 10:28:41
SO-50 28 May 10:17:51 10:22:10 38° 244° (WSW) 10:26:21 436.795
CANX-2 28 May 10:21:34 10:24:45 21° 294° (WNW) 10:27:55 2200.000
SEEDS 28 May 10:22:31 10:26:11 29° 291° (WNW) 10:29:53 437.485
CUSAT 1 28 May 10:26:32 10:28:51 12° 74° (ENE) 10:31:17 437.405
DUCHIFAT 1 28 May 10:31:42 10:33:22 12° 62° (ENE) 10:35:03 145.980
O/OREOS (USA 219) 28 May 10:33:21 10:37:46 48° 297° (WNW) 10:42:11 437.305
CINEMA 3 28 May 10:35:02 10:37:36 16° 296° (WNW) 10:40:09 145.822/145.860
ANTELSAT 28 May 10:36:48 10:41:09 80° 76° (ENE) 10:45:27 437.575/2403.000
AUBIESAT-1 28 May 10:38:31 10:40:14 14° 300° (WNW) 10:41:58 437.475
CUTE 1.7 + AOD 2 28 May 10:49:48 10:51:40 13° 298° (WNW) 10:53:31 437.475
Oscar 11 28 May 10:54:25 10:58:40 56° 287° (WNW) 11:02:55 145.826/435.025
HO-68 28 May 10:59:10 11:05:03 29° 301° (WNW) 11:10:57 435.675
PCSat 28 May 11:02:01 11:07:13 45° 307° (NW) 11:12:26 145.827
POPSAT HIP 1 28 May 11:08:16 11:12:00 31° 70° (ENE) 11:15:46 437.405
COMPASS 1 28 May 11:08:32 11:10:48 14° 297° (WNW) 11:13:03 437.405
QB50P1 28 May 11:08:33 11:12:20 32° 70° (ENE) 11:16:07 145.935-145.965
AAUSAT CUBESAT 2 28 May 11:10:02 11:12:41 16° 295° (WNW) 11:15:19 437.432
ZACube-1 28 May 11:10:07 11:14:04 41° 288° (WNW) 11:18:03 437.345
QB50P2 28 May 11:11:00 11:14:52 36° 70° (ENE) 11:18:46 145.880/145.840
HUMSAT D 28 May 11:12:04 11:16:07 49° 99° (E) 11:20:12 437.325/437.525
POLYITAN 1 28 May 11:13:27 11:17:20 37° 71° (ENE) 11:21:14 437.675
BEESAT 2 28 May 11:18:36 11:21:12 17° 111° (ESE) 11:23:49 435.950
CUBEBUG 2 28 May 11:19:45 11:22:24 17° 295° (WNW) 11:25:05 437.445
NANOSAT C BR1 28 May 11:26:14 11:30:18 48° 72° (ENE) 11:34:22 145.865
UNISAT 6 28 May 11:33:07 11:36:45 25° 265° (W) 11:40:21 437.425
DELFI C3 28 May 11:33:11 11:36:58 40° 288° (WNW) 11:40:44 145.870
Cosmos 2499 28 May 11:33:38 11:40:57 32° 276° (W) 11:48:26 435.465 / 435.565
TIGRISAT 28 May 11:40:39 11:44:06 23° 265° (W) 11:47:31 435.000
JAS-2 28 May 11:43:08 11:49:04 26° 58° (ENE) 11:55:13 435.910
UWE-3 28 May 11:47:33 11:49:21 13° 297° (WNW) 11:51:11 435.000/436.395/437.385
FUNcube-1 28 May 11:48:41 11:51:34 18° 294° (WNW) 11:54:28 145.935
BEESAT 3 28 May 11:50:23 11:54:16 66° 121° (ESE) 11:58:13 437.485
AISAT 28 May 11:59:26 12:02:48 21° 94° (E) 12:06:08 437.250
50 SAT 28 May 12:00:51 12:03:46 21° 95° (E) 12:06:40 437.505
CUSAT 1 28 May 12:02:50 12:09:11 68° 95° (E) 12:16:54 437.405
UKube-1 28 May 12:03:59 12:06:27 15° 92° (E) 12:08:53 .
DUCHIFAT 1 28 May 12:04:20 12:08:32 67° 259° (WSW) 12:12:44 145.980
DANDE 28 May 12:05:02 12:10:01 33° 85° (E) 12:16:15 436.750
GONETS M04 28 May 12:13:34 12:15:04 11° 289° (WNW) 12:16:34
BUGSAT 1 28 May 12:19:15 12:23:27 85° 78° (ENE) 12:27:39 437.445
ESTCUBE 1 28 May 12:39:57 12:44:32 82° 102° (ESE) 12:49:05 437.505/2401.250
POPSAT HIP 1 28 May 12:44:27 12:47:49 23° 265° (W) 12:51:12 437.405
QB50P1 28 May 12:44:49 12:48:09 22° 266° (W) 12:51:29 145.935-145.965
QB50P2 28 May 12:47:39 12:50:47 20° 266° (W) 12:53:56 145.880/145.840
HUMSAT D 28 May 12:48:54 12:51:22 15° 296° (WNW) 12:53:49 437.325/437.525
CUBEBUG 1 28 May 12:49:46 12:54:09 73° 101° (ESE) 12:58:30 437.445
POLYITAN 1 28 May 12:50:11 12:53:16 19° 267° (W) 12:56:21 437.675
DX 1 28 May 12:50:45 12:55:05 59° 102° (ESE) 12:59:21 434.975-435.025
PCSat 28 May 12:51:01 12:52:03 10° 329° (NNW) 12:53:07 145.827
BEESAT 2 28 May 12:54:53 12:58:42 45° 308° (NW) 13:02:34 435.950
VELOX 1 28 May 12:58:47 13:03:15 87° 103° (ESE) 13:07:39 145.980
NANOSAT C BR1 28 May 13:03:50 13:06:18 15° 269° (W) 13:08:45 145.865
SPROUT 28 May 13:13:11 13:17:21 51° 100° (E) 13:21:29 437.525
JAS-2 28 May 13:25:53 13:33:15 76° 257° (WSW) 13:41:10 435.910
Oscar 19 28 May 13:26:44 13:31:51 63° 72° (ENE) 13:37:01 437.125/150
BEESAT 3 28 May 13:29:58 13:32:24 16° 319° (NW) 13:34:51 437.485
Cosmos 2491 28 May 13:31:48 13:35:50 14° 55° (NE) 13:39:49 435.465 / 435.565
AIST 2 28 May 13:33:32 13:37:07 29° 115° (ESE) 13:40:44 435.215
50 SAT 28 May 13:34:20 13:37:28 26° 291° (WNW) 13:40:36 437.505
TISAT 1 28 May 13:34:51 13:38:15 24° 95° (E) 13:41:36 437.305
AISAT 28 May 13:35:19 13:39:23 37° 291° (WNW) 13:43:25 437.250
UKube-1 28 May 13:38:35 13:42:48 51° 288° (WNW) 13:46:58 .
CUSAT 1 28 May 13:46:35 13:52:06 26° 298° (WNW) 13:58:24 437.405
DANDE 28 May 13:47:13 13:52:37 42° 291° (WNW) 13:59:32 436.750
AO-7 28 May 13:47:23 13:52:33 18° 47° (NE) 13:57:43 29.400- 29.500
Gurwin Techsat 1B 28 May 13:56:08 14:01:14 50° 70° (ENE) 14:06:22 435.225
AO-85 28 May 14:03:59 14:07:56 25° 42° (NE) 14:11:37 145.980
ITAMSAT 1 28 May 14:11:02 14:15:23 28° 65° (ENE) 14:19:46 435.822/435.867
ESTCUBE 1 28 May 14:19:09 14:20:40 12° 300° (WNW) 14:22:11 437.505/2401.250
CUBEBUG 1 28 May 14:28:10 14:29:50 12° 299° (WNW) 14:31:29 437.445
DX 1 28 May 14:28:25 14:30:47 14° 298° (WNW) 14:33:08 434.975-435.025
VELOX 1 28 May 14:38:12 14:39:00 10° 301° (WNW) 14:39:49 145.980
SWISSCUBE 28 May 14:40:27 14:44:30 26° 95° (E) 14:48:31 437.505
ITUPSAT 1 28 May 14:47:04 14:51:09 27° 95° (E) 14:55:13 437.325
SPROUT 28 May 14:50:22 14:52:53 16° 297° (WNW) 14:55:25 437.525
Oscar 19 28 May 15:08:22 15:11:36 16° 269° (W) 15:14:51 437.125/150
BEESAT 28 May 15:09:40 15:14:17 46° 99° (E) 15:18:53 436.000
TISAT 1 28 May 15:10:16 15:13:54 29° 291° (WNW) 15:17:30 437.305
AIST 2 28 May 15:11:56 15:15:34 29° 313° (NW) 15:19:14 435.215
JAS-2 28 May 15:15:46 15:19:32 14° 277° (W) 15:23:24 435.910
Cosmos 2491 28 May 15:25:57 15:34:41 66° 78° (ENE) 15:43:19 435.465 / 435.565
YUBILEINY 28 May 15:28:09 15:35:06 28° 82° (E) 15:42:03 435.215
AO-7 28 May 15:35:42 15:43:56 73° 68° (ENE) 15:52:14 29.400- 29.500
Gurwin Techsat 1B 28 May 15:37:28 15:41:27 21° 267° (W) 15:45:28 435.225
AO-85 28 May 15:44:14 15:48:39 44° 244° (WSW) 15:52:41 145.980
ITAMSAT 1 28 May 15:49:56 15:54:42 38° 262° (W) 15:59:31 435.822/435.867
KKS-1 28 May 15:51:51 15:54:29 15° 92° (E) 15:57:07 437.445
MOZHAYETS 4 28 May 16:13:12 16:16:43 21° 93° (E) 16:20:14
HORYU 2 28 May 16:16:27 16:20:12 28° 67° (ENE) 16:23:59 437.375
SWISSCUBE 28 May 16:17:59 16:22:20 35° 292° (WNW) 16:26:39 437.505
ITUPSAT 1 28 May 16:24:41 16:29:00 34° 292° (WNW) 16:33:19 437.325
STARS 28 May 16:24:44 16:27:41 18° 93° (E) 16:30:37 437.465
NOAA 15 28 May 16:40:38 16:42:56 13° 57° (ENE) 16:45:15 137.62
BEESAT 28 May 16:48:13 16:51:45 21° 296° (WNW) 16:55:17 436.000
Cubesat XI-IV 28 May 16:50:25 16:51:21 10° 55° (NE) 16:52:18 437.490
NOAA 18 28 May 16:54:18 16:57:23 16° 58° (ENE) 17:00:28 137.9125
BRITE-PL 28 May 16:57:07 17:00:08 15° 59° (ENE) 17:03:10 437.365/2234.400
RS-15 28 May 17:07:38 17:18:15 50° 110° (ESE) 17:29:26 29.354- 29.394
GOMX 1 28 May 17:18:57 17:19:59 11° 58° (ENE) 17:21:02 467.674
YUBILEINY 28 May 17:22:36 17:31:12 65° 282° (WNW) 17:39:51 435.215
Cosmos 2491 28 May 17:23:50 17:30:47 28° 279° (W) 17:37:43 435.465 / 435.565
KKS-1 28 May 17:27:02 17:31:21 51° 288° (WNW) 17:35:38 437.445
AO-7 28 May 17:30:54 17:37:24 25° 267° (W) 17:43:57 29.400- 29.500
CUTE-I 28 May 17:32:30 17:36:44 25° 64° (ENE) 17:41:01 437.470
CUBESAT XI-V 28 May 17:41:11 17:44:44 21° 93° (E) 17:48:15 437.345
Cosmos 2504 28 May 17:46:46 17:53:46 56° 91° (E) 18:01:11 435.465 / 435.565
MOZHAYETS 4 28 May 17:49:42 17:54:02 40° 289° (WNW) 17:58:21
HORYU 2 28 May 17:52:54 17:56:42 28° 264° (W) 18:00:32 437.375
STARS 28 May 18:00:06 18:04:15 43° 289° (WNW) 18:08:22 437.465
DOVE 4 28 May 18:01:35 18:03:36 12° 60° (ENE) 18:05:36 437.250
PCSat 28 May 18:05:55 18:10:38 29° 48° (NE) 18:15:19 145.827
NOAA 15 28 May 18:16:35 18:21:54 86° 75° (ENE) 18:27:15 137.62
Cubesat XI-IV 28 May 18:25:11 18:30:28 71° 73° (ENE) 18:35:47 437.490
LilacSat-2 28 May 18:27:51 18:31:36 66° 76° (ENE) 18:35:23 437.200
NOAA 18 28 May 18:31:52 18:37:20 82° 255° (WSW) 18:42:50 137.9125
BRITE-PL 28 May 18:32:07 18:37:47 89° 73° (ENE) 18:43:30 437.365/2234.400
GOMX 1 28 May 18:51:41 18:57:08 70° 74° (ENE) 19:02:28 467.674
O/OREOS (USA 219) 28 May 19:03:23 19:07:35 38° 61° (ENE) 19:11:45 437.305
CUTE-I 28 May 19:11:28 19:16:31 45° 261° (W) 19:21:37 437.470
CUBESAT XI-V 28 May 19:17:50 19:22:17 42° 289° (WNW) 19:26:42 437.345
RS-15 28 May 19:19:24 19:30:36 56° 315° (NW) 19:42:28 29.354- 29.394
STRAND 1 28 May 19:25:02 19:28:45 20° 92° (E) 19:32:27 437.568
YUBILEINY 28 May 19:26:13 19:30:01 13° 305° (NW) 19:33:50 435.215
BEESAT 2 28 May 19:35:12 19:37:51 17° 41° (NE) 19:40:29 435.950
DOVE 4 28 May 19:35:22 19:40:36 88° 85° (E) 19:45:39 437.250
CANX-2 28 May 19:38:44 19:42:22 29° 69° (ENE) 19:46:03 2200.000
HO-68 28 May 19:39:53 19:46:40 49° 66° (ENE) 19:53:30 435.675
SEEDS 28 May 19:39:55 19:42:56 20° 66° (ENE) 19:45:58 437.485
Cosmos 2504 28 May 19:41:33 19:47:37 28° 293° (WNW) 19:54:02 435.465 / 435.565
PCSat 28 May 19:49:02 19:54:14 47° 247° (WSW) 19:59:22 145.827
AUBIESAT-1 28 May 19:49:10 19:53:11 60° 69° (ENE) 19:56:56 437.475
M-CUBED/EXP-1 PRIME 28 May 19:56:42 20:00:53 89° 252° (WSW) 20:04:46 437.505
CINEMA 3 28 May 19:58:35 20:03:06 48° 73° (ENE) 20:07:27 145.822/145.860
NOAA 15 28 May 20:00:23 20:02:20 12° 272° (W) 20:04:19 137.62
CUTE 1.7 + AOD 2 28 May 20:05:16 20:09:20 49° 73° (ENE) 20:13:25 437.475
BEESAT 3 28 May 20:07:01 20:10:53 48° 52° (NE) 20:14:42 437.485
Cubesat XI-IV 28 May 20:08:07 20:11:04 15° 270° (W) 20:14:02 437.490
BRITE-PL 28 May 20:14:17 20:16:55 13° 273° (W) 20:19:34 437.365/2234.400
Oscar 11 28 May 20:16:19 20:18:09 13° 62° (ENE) 20:19:59 145.826/435.025
NOAA 18 28 May 20:18:19 20:18:48 10° 272° (W) 20:19:17 137.9125
COMPASS 1 28 May 20:22:54 20:26:46 40° 72° (ENE) 20:30:40 437.405
AAUSAT CUBESAT 2 28 May 20:24:28 20:28:10 33° 70° (ENE) 20:31:56 437.432
PRISM 28 May 20:27:32 20:29:18 12° 90° (E) 20:31:03 437.425
ZACube-1 28 May 20:32:01 20:34:32 16° 64° (ENE) 20:37:02 437.345
GOMX 1 28 May 20:32:15 20:35:38 16° 270° (W) 20:38:58 467.674
AIST 1 28 May 20:33:22 20:36:03 16° 85° (E) 20:38:45
CUBEBUG 2 28 May 20:40:48 20:44:53 41° 72° (ENE) 20:48:53 437.445
O/OREOS (USA 219) 28 May 20:43:21 20:46:44 21° 258° (WSW) 20:50:06 437.305
DELFI C3 28 May 20:47:35 20:48:54 11° 62° (ENE) 20:50:14 145.870
CUSAT 1 28 May 20:58:32 21:01:06 12° 51° (NE) 21:03:33 437.405
STRAND 1 28 May 21:03:13 21:08:13 52° 289° (WNW) 21:13:12 437.568
UWE-3 28 May 21:06:46 21:10:57 54° 74° (ENE) 21:15:04 435.000/436.395/437.385
FUNcube-1 28 May 21:07:56 21:11:45 34° 71° (ENE) 21:15:31 145.935
BEESAT 2 28 May 21:12:07 21:16:04 60° 240° (WSW) 21:19:58 435.950
SEEDS 28 May 21:14:31 21:18:23 37° 263° (W) 21:22:18 437.485
CANX-2 28 May 21:14:47 21:18:13 24° 266° (W) 21:21:42 2200.000
DOVE 4 28 May 21:17:19 21:18:50 11° 272° (W) 21:20:21 437.250
GONETS M04 28 May 21:17:53 21:25:24 33° 84° (E) 21:32:52
ISS 28 May 21:21:02 21:24:08 40° 140° (SE) 21:27:14 145.825
AUBIESAT-1 28 May 21:26:38 21:27:55 11° 262° (W) 21:29:10 437.475
HO-68 28 May 21:28:15 21:34:33 34° 264° (W) 21:40:56 435.675
RS-15 28 May 21:37:03 21:46:38 27° 346° (NNW) 21:56:32 29.354- 29.394
CINEMA 3 28 May 21:37:16 21:40:26 18° 267° (W) 21:43:33 145.822/145.860
CUTE 1.7 + AOD 2 28 May 21:43:09 21:45:27 14° 269° (W) 21:47:47 437.475
BEESAT 3 28 May 21:45:48 21:48:11 16° 249° (WSW) 21:50:34 437.485
Oscar 11 28 May 21:49:28 21:53:43 67° 259° (W) 21:58:01 145.826/435.025
AIST 2 28 May 21:53:52 21:57:27 27° 47° (NE) 22:01:02 435.215
COMPASS 1 28 May 21:59:45 22:02:30 17° 268° (W) 22:05:18 437.405
AAUSAT CUBESAT 2 28 May 22:00:38 22:03:44 20° 267° (W) 22:06:52 437.432
PRISM 28 May 22:00:52 22:04:59 57° 287° (WNW) 22:09:03 437.425
HUMSAT D 28 May 22:04:07 22:07:51 36° 71° (ENE) 22:11:37 437.325/437.525
ZACube-1 28 May 22:06:22 22:10:28 48° 260° (W) 22:14:31 437.345
AIST 1 28 May 22:09:02 22:13:15 45° 282° (WNW) 22:17:30
Cosmos 2499 28 May 22:17:56 22:24:41 43° 88° (E) 22:31:55 435.465 / 435.565
CUBEBUG 2 28 May 22:18:41 22:21:41 18° 267° (W) 22:24:38 437.445
DELFI C3 28 May 22:19:19 22:23:14 63° 259° (W) 22:27:13 145.870
ANTELSAT 28 May 22:28:51 22:31:21 15° 92° (E) 22:33:51 437.575/2403.000
PHONESAT 2.4 28 May 22:32:46 22:35:34 30° 161° (SSE) 22:38:22 2401.200-2431.200
CUSAT 1 28 May 22:37:40 22:45:18 56° 74° (ENE) 22:51:36 437.405
50 SAT 28 May 22:41:27 22:42:50 12° 64° (ENE) 22:44:13 437.505
DANDE 28 May 22:42:10 22:49:50 37° 68° (ENE) 22:56:50 436.750
FUNcube-1 28 May 22:44:58 22:48:05 20° 266° (W) 22:51:12 145.935
UWE-3 28 May 22:45:39 22:47:44 13° 269° (W) 22:49:48 435.000/436.395/437.385
AISAT 28 May 22:57:36 23:01:02 22° 66° (ENE) 23:04:28 437.250
ISS 28 May 22:57:39 23:00:38 32° 337° (NNW) 23:03:37 145.825
UKube-1 28 May 22:59:36 23:02:07 15° 62° (ENE) 23:04:37 .
GONETS M04 28 May 23:13:10 23:21:46 56° 284° (WNW) 23:30:22
UNISAT 6 28 May 23:22:52 23:27:08 58° 100° (E) 23:31:27 437.425
TIGRISAT 28 May 23:29:59 23:34:15 65° 101° (ESE) 23:38:35 435.000
AIST 2 28 May 23:32:14 23:35:57 33° 245° (WSW) 23:39:40 435.215
ESTCUBE 1 28 May 23:39:52 23:44:22 81° 77° (ENE) 23:48:56 437.505/2401.250
HUMSAT D 28 May 23:40:48 23:43:37 18° 267° (W) 23:46:27 437.325/437.525
CUBEBUG 1 28 May 23:46:00 23:50:23 66° 74° (ENE) 23:54:49 437.445
DX 1 28 May 23:46:39 23:50:56 56° 73° (ENE) 23:55:15 434.975-435.025
DUCHIFAT 1 28 May 23:48:39 23:51:30 18° 93° (E) 23:54:19 145.980
RS-15 28 May 23:54:06 00:04:25 30° 22° (NNE) 00:14:52 29.354- 29.394
VELOX 1 28 May 23:56:24 00:00:52 84° 76° (ENE) 00:05:22 145.980
BUGSAT 1 29 May 00:02:57 00:03:55 11° 90° (E) 00:04:53 437.445
ANTELSAT 29 May 00:04:10 00:08:20 50° 288° (WNW) 00:12:34 437.575/2403.000
SPROUT 29 May 00:07:18 00:11:20 42° 72° (ENE) 00:15:24 437.525
PHONESAT 2.4 29 May 00:08:58 00:12:04 57° 177° (S) 00:15:09 2401.200-2431.200
Cosmos 2499 29 May 00:11:15 00:17:53 37° 289° (WNW) 00:25:02 435.465 / 435.565
50 SAT 29 May 00:12:36 00:16:08 49° 260° (W) 00:19:42 437.505
CUSAT 1 29 May 00:20:32 00:26:51 29° 276° (W) 00:32:17 437.405
DANDE 29 May 00:24:52 00:33:00 55° 269° (W) 00:40:18 436.750
POPSAT HIP 1 29 May 00:27:24 00:31:31 52° 100° (E) 00:35:36 437.405
TISAT 1 29 May 00:27:30 00:30:39 21° 66° (ENE) 00:33:49 437.305
QB50P1 29 May 00:27:40 00:31:47 53° 100° (E) 00:35:53 145.935-145.965
QB50P2 29 May 00:30:25 00:34:36 61° 101° (E) 00:38:45 145.880/145.840
SO-50 29 May 00:31:42 00:36:30 59° 120° (ESE) 00:41:21 436.795
POLYITAN 1 29 May 00:32:53 00:37:03 62° 101° (E) 00:41:13 437.675
AISAT 29 May 00:33:07 00:37:17 38° 262° (W) 00:41:28 437.250
UKube-1 29 May 00:33:27 00:37:42 55° 259° (W) 00:41:59 .
ISS 29 May 00:35:33 00:37:48 17° 357° (N) 00:40:02 145.825
JAS-2 29 May 00:37:22 00:42:03 18° 85° (E) 00:46:26 435.910
NANOSAT C BR1 29 May 00:45:16 00:49:29 82° 104° (ESE) 00:53:40 145.865
UNISAT 6 29 May 01:01:06 01:03:25 14° 297° (WNW) 01:05:43 437.425
TIGRISAT 29 May 01:08:32 01:10:25 13° 298° (WNW) 01:12:21 435.000
GONETS M04 29 May 01:18:38 01:20:55 11° 308° (NW) 01:23:12
DUCHIFAT 1 29 May 01:23:27 01:27:22 39° 289° (WNW) 01:31:15 145.980
DX 1 29 May 01:25:10 01:27:28 14° 269° (W) 01:29:47 434.975-435.025
CUBEBUG 1 29 May 01:25:23 01:27:07 12° 270° (W) 01:28:52 437.445
BUGSAT 1 29 May 01:35:42 01:39:42 60° 286° (WNW) 01:43:39 437.445
YUBILEINY 29 May 01:37:20 01:41:37 14° 56° (NE) 01:45:53 435.215
Oscar 19 29 May 01:38:24 01:42:13 21° 93° (E) 01:46:00 437.125/150
SPROUT 29 May 01:44:37 01:47:29 17° 268° (W) 01:50:23 437.525
PHONESAT 2.4 29 May 01:45:39 01:48:37 39° 194° (SSW) 01:51:34 2401.200-2431.200
SWISSCUBE 29 May 01:47:34 01:51:48 33° 68° (ENE) 01:56:04 437.505
ITUPSAT 1 29 May 01:54:27 01:58:44 34° 68° (ENE) 02:03:02 437.325
TISAT 1 29 May 02:02:12 02:06:05 36° 262° (W) 02:10:00 437.305
POPSAT HIP 1 29 May 02:04:30 02:06:53 15° 297° (WNW) 02:09:15 437.405
QB50P1 29 May 02:04:49 02:07:08 15° 297° (WNW) 02:09:27 145.935-145.965
RS-15 29 May 02:07:26 02:19:44 69° 51° (NE) 02:32:00 29.354- 29.394
QB50P2 29 May 02:07:56 02:09:55 13° 298° (WNW) 02:11:52 145.880/145.840
POLYITAN 1 29 May 02:10:28 02:12:22 13° 298° (WNW) 02:14:14 437.675
ISS 29 May 02:12:19 02:15:03 24° 18° (NNE) 02:17:48 145.825
Gurwin Techsat 1B 29 May 02:12:27 02:16:08 19° 92° (E) 02:19:47 435.225
SO-50 29 May 02:13:25 02:17:22 24° 318° (NW) 02:21:18 436.795
DANDE 29 May 02:13:36 02:13:53 10° 288° (WNW) 02:14:10 436.750
BEESAT 29 May 02:16:37 02:21:16 58° 72° (ENE) 02:25:57 436.000
JAS-2 29 May 02:20:35 02:28:06 84° 285° (WNW) 02:34:45 435.910
NANOSAT C BR1 29 May 02:24:26 02:24:33 10° 300° (WNW) 02:24:42 145.865
Cosmos 2491 29 May 02:37:00 02:40:59 14° 74° (ENE) 02:44:58 435.465 / 435.565
KKS-1 29 May 02:50:47 02:53:40 17° 63° (ENE) 02:56:33 437.445
MOZHAYETS 4 29 May 03:15:59 03:19:30 22° 65° (ENE) 03:23:02
